Nottely Observed Data For Previous 48 Hours

Caption
Day and Hour Reservoir Elevation (behind dam)* Tailwater Elevation (below dam)* Average Hourly Discharge*
8/15/2018 2 AM EDT 1,776.53 1,607.20 65
8/15/2018 3 AM EDT 1,776.53 1,607.20 65
8/15/2018 4 AM EDT 1,776.54 1,607.20 65
8/15/2018 5 AM EDT 1,776.54 1,607.20 65
8/15/2018 6 AM EDT 1,776.55 1,607.20 65
8/15/2018 7 AM EDT 1,776.55 1,607.20 65
8/15/2018 8 AM EDT 1,776.55 1,607.20 65
8/15/2018 9 AM EDT 1,776.55 1,607.20 65
8/15/2018 10 AM EDT 1,776.56 1,607.20 65
8/15/2018 11 AM EDT 1,776.56 1,607.20 65
8/15/2018 12 PM EDT 1,776.55 1,611.51 412
8/15/2018 1 PM EDT 1,776.54 1,607.19 846
8/15/2018 2 PM EDT 1,776.54 1,608.10 58
8/15/2018 3 PM EDT 1,776.54 1,608.06 537
8/15/2018 4 PM EDT 1,776.54 1,607.15 65
8/15/2018 5 PM EDT 1,776.54 1,607.15 65
8/15/2018 6 PM EDT 1,776.55 1,607.15 65
8/15/2018 7 PM EDT 1,776.55 1,607.15 65
8/15/2018 8 PM EDT 1,776.56 1,607.15 65
8/15/2018 9 PM EDT 1,776.56 1,607.15 65
8/15/2018 10 PM EDT 1,776.57 1,607.15 65
8/15/2018 11 PM EDT 1,776.56 1,607.15 65
8/16/2018 12 AM EDT 1,776.57 1,607.15 65
8/16/2018 1 AM EDT 1,776.57 1,607.15 65
8/16/2018 2 AM EDT 1,776.57 1,607.15 65
8/16/2018 3 AM EDT 1,776.57 1,607.15 65
8/16/2018 4 AM EDT 1,776.58 1,607.15 65
8/16/2018 5 AM EDT 1,776.58 1,607.15 65
8/16/2018 6 AM EDT 1,776.59 1,607.15 65
8/16/2018 7 AM EDT 1,776.59 1,607.15 65
8/16/2018 8 AM EDT 1,776.59 1,607.15 65
8/16/2018 9 AM EDT 1,776.59 1,607.15 65
8/16/2018 10 AM EDT 1,776.60 1,607.15 65
8/16/2018 11 AM EDT 1,776.60 1,607.15 65
8/16/2018 12 PM EDT 1,776.60 1,607.15 65
8/16/2018 1 PM EDT 1,776.61 1,607.15 65
8/16/2018 2 PM EDT 1,776.61 1,607.15 65
8/16/2018 3 PM EDT 1,776.60 1,611.56 502
8/16/2018 4 PM EDT 1,776.58 1,611.62 1,440
8/16/2018 5 PM EDT 1,776.56 1,611.59 1,443
8/16/2018 6 PM EDT 1,776.53 1,611.57 1,441
8/16/2018 7 PM EDT 1,776.51 1,611.57 1,438
8/16/2018 8 PM EDT 1,776.49 1,611.55 1,432
8/16/2018 9 PM EDT 1,776.47 1,611.55 1,435
8/16/2018 10 PM EDT 1,776.45 1,611.58 1,430
8/16/2018 11 PM EDT 1,776.42 1,611.53 1,426
8/17/2018 12 AM EDT 1,776.39 1,611.53 1,427
8/17/2018 1 AM EDT 1,776.37 1,611.53 1,425
8/17/2018 2 AM EDT 1,776.34 1,611.56 1,430
8/17/2018 3 AM EDT 1,776.32 1,611.58 1,425
8/17/2018 4 AM EDT 1,776.29 1,611.58 1,432
8/17/2018 5 AM EDT 1,776.26 1,611.59 1,436
8/17/2018 6 AM EDT 1,776.24 1,611.58 1,439
8/17/2018 7 AM EDT 1,776.22 1,611.57 1,434
8/17/2018 8 AM EDT 1,776.19 1,611.55 1,431
8/17/2018 9 AM EDT 1,776.17 1,611.57 1,431
8/17/2018 10 AM EDT 1,776.15 1,611.57 1,440
8/17/2018 11 AM EDT 1,776.12 1,611.59 1,441
8/17/2018 12 PM EDT 1,776.09 1,611.59 1,442

Elevations are in feet above sea level. Discharges are in cubic feet per second and are reported at the end of the hour.